User: anonymous   Login
Location: Unspecified
(0.0000°N, 0.0000°E)
Time: 19:54:45
(UTC+00:00)
Language:

SAR-Lupe-5 - Orbit

View from above orbital plane
View from above orbital plane
View from above satellite
View from above satellite

Ground track
Ground track

The orbit data is extracted from the following two-line orbital elements,

1 33244U 08036A   21103.09810751 0.00000700  00000-0  26081-4 0    02
2 33244  98.1895  69.4035 0002996 227.7783 132.2215 15.27481668    01
Epoch (UTC): 13 April 2021 02:21:16
Eccentricity: 0.0002996
inclination: 98.1895°
perigee height: 481 km
apogee height: 485 km
right ascension of ascending node: 69.4035°
argument of perigee: 227.7783°
revolutions per day: 15.27481668
mean anomaly at epoch: 132.2215°
orbit number at epoch: 0

The dashed part of the orbit path shows where the satellite is in the earth's shadow,  

DLR